Location: Brownlee
(50.7397°N, 106.0159°W)
Time: 07:10:25
(UTC+00:00)

Envisat - Pass Details

Date: 03 December 2022
Orbit: 763 x 765 km, 98.2° (Epoch: 04 February)

Event Time Altitude Azimuth Distance (km) Brightness Sun altitude
Rises 12:38:56 0° 7° (N) 3,247 6.2 -19.3°
Reaches altitude 10° 12:41:31 10° 356° (N) 2,316 5.3 -18.9°
Enters shadow 12:44:38 26° 322° (NW) 1,497 4.1 -18.4°
